    Orbital elements:
    2013 TV135                                          PHA, Earth MOID = 0.0042 AU
    Epoch 2017 Sept. 4.0 TT = JDT 2458000.5                 MPC
    M  16.03166              (2000.0)            P               Q
    n   0.26088849     Peri.   23.84390     +0.99756140     +0.04581832
    a   2.4256759      Node   333.36722     -0.06582154     +0.86847231
    e   0.5941269      Incl.    6.74493     +0.02321156     +0.49361578
    P   3.78           H   19.5           G   0.15           U   0
    Residuals in seconds of arc
    131008 095 (1.9-  2.4-)   131023 121  0.0   0.1-    131031 B18  0.1+  0.1-
    131008 095 (3.4-  2.8-)   131023 121  0.2+  0.1+    131031 B18  0.2-  0.1-
    131012 095  0.3-  0.7-    131023 121  0.7+  0.5-    131031 071  0.2-  0.4+
    131013 095 (1.6-  2.9-)   131023 121  0.1-  0.1+    131031 B18  0.0   0.1-
    131013 095  1.2+  1.4+    131023 121  0.1+  0.1-    131031 071  0.3-  0.3+
    131015 C94  0.1+  0.5-    131023 121  0.1+  0.3-    131031 B18  0.1+  0.1-
    131015 C94  0.7+  1.0-    131023 121  0.1+  0.2-    131031 071  0.1+  0.3+
    131015 C94  0.2-  0.1+    131023 121  0.2+  0.1-    131031 071  0.1+  0.2+
    131015 C32  0.6+  0.3+    131023 121  0.4+  0.0     131031 071  0.0   0.4+
    131015 C32  0.5-  0.2+    131023 121  0.8+  0.4+    131031 071  0.3-  0.0
    131015 C32  0.1+  0.0     131023 121  0.2+  0.7-    131031 071  0.2-  0.3+
    131015 C32  0.1-  0.3+    131023 121  0.7+  0.0     131031 071  0.1-  0.3+
    131015 A24  0.3+  0.3+    131023 121  0.2+  0.0     131031 071  0.3-  0.5+
    131015 A24  0.2+  0.3+    131024 J95  0.2+  0.2-    131031 071  0.4-  0.2+
    131015 A24  0.1-  0.3+    131024 J95  0.1+  0.2-    131031 291  0.0   0.7+
    131015 J95  0.5-  0.4+    131024 J95  0.1+  0.3-    131031 291  0.5-  0.1+
    131015 A24  0.1-  0.2-    131024 G40  0.0   0.1-    131031 291  0.4-  0.1-
    131015 J95  0.0   0.3-    131024 G40  0.1+  0.2-    131031 104  0.1+  0.1-
    131015 J95  0.2+  0.1-    131024 G40  0.3+  0.0     131031 104  0.1+  0.0
    131015 C77  0.2-  0.4-    131024 G40  0.3+  0.0     131101 H45  0.1-  0.2-
    131015 C77  0.3-  0.3-    131024 H45  0.6-  0.1+    131101 H36  0.1+  0.1+
    131015 C77  0.1-  0.2-    131024 H45  0.1-  0.1+    131101 H45  0.1-  0.0
    131015 C77  0.1-  0.1-    131024 H45  1.0-  0.3+    131101 H45  0.3-  0.1+
    131016 B49 (1.7+  0.1-)   131024 H45  0.1-  0.2-    131101 H45  0.0   0.0
    131016 B49  0.8+  0.1+    131024 H45  0.1-  0.3+    131101 H45  0.2-  0.1+
    131016 B49  0.3-  0.2+    131024 H45  0.2-  0.3+    131101 H45  0.1-  0.0
    131016 926  0.1-  0.2+    131024 H45  0.2-  0.1-    131101 H36  0.1+  0.1-
    131016 926  0.1-  0.1+    131024 H45  0.2-  0.2+    131101 H36  0.1+  0.1-
    131016 926  0.1-  0.2+    131024 H45  0.5-  0.4+    131101 H45  0.0   0.1-
    131017 H15  0.0   0.2+    131024 291  0.1-  0.1+    131101 H45  0.0   0.4+
    131017 H15  0.1-  0.2-    131024 291  0.1-  0.3+    131101 H45  0.3-  0.0
    131017 H15  0.1+  0.4-    131024 291  0.1-  0.4+    131101 H45  0.2-  0.0
    131017 J95  0.3-  0.0     131024 718  1.2-  0.1+    131102 Z81  0.2+  0.0
    131017 470  0.2+  0.4-    131024 718 (0.6+  2.3+)   131102 Z81  0.0   0.1+
    131017 470  0.1+  0.1+    131024 718  0.7+  0.7+    131102 Z81  0.2+  0.1-
    131017 J95  0.3-  0.1+    131024 H15  0.1+  0.2+    131102 G40  0.1+  0.1-
    131017 470  1.3+  1.0-    131024 H15  0.2+  0.1-    131102 G40  0.3+  0.0
    131017 470  0.3+  0.1-    131024 H15  0.1+  0.0     131102 926  0.0   0.4-
    131017 470  0.3+  0.3-    131024 B18  0.1+  0.0     131102 H06  0.2-  0.7-
    131018 G40  0.5-  1.2-    131024 151  0.2-  0.2-    131102 H06  0.0   0.2+
    131018 G40  0.9-  0.9-    131024 151  0.2-  0.2-    131102 H06  0.0   0.2-
    131018 G40  0.5-  0.2+    131024 151  0.3-  0.3-    131102 H06  0.2+  0.1+
    131018 H45  0.2-  0.4-    131024 151  0.2-  0.1-    131102 926  0.3-  0.2+
    131018 H45  0.1-  0.2-    131024 151  0.0   0.1+    131102 H21  0.1+  0.1-
    131018 H45  0.3+  0.1-    131024 B67  0.4-  0.1-    131102 926  0.1-  0.4+
    131018 H45  0.1-  0.1+    131024 B67  0.2-  0.2-    131102 H21  0.1+  0.1-
    131018 H45  0.2+  0.2-    131024 B18  0.1-  0.0     131102 H21  0.2+  0.1-
    131018 H45  0.4-  0.4-    131024 B67  0.3-  0.0     131102 H45  0.3+  0.1-
    131018 926  0.1-  0.0     131024 B18  0.0   0.1-    131102 H21  0.1+  0.1-
    131018 H45  0.6-  0.3-    131024 B18  0.0   0.0     131102 H45  0.1+  0.2-
    131018 H45  0.4+  0.0     131024 B18  0.1-  0.1-    131102 H45  0.3+  0.3-
    131018 H06 (1.7+  0.2-)   131024 B67  0.5-  0.5-    131102 H45  0.0   0.2-
    131018 H45  0.1+  0.4-    131025 B18  0.0   0.2-    131102 H21  0.0   0.2-
    131018 H45  0.3+  0.1-    131025 B18  0.0   0.2-    131102 H45  0.0   0.4-
    131018 H45  0.3+  0.2-    131025 B18  0.0   0.2-    131102 H45  0.1-  0.5-
    131018 H06  0.6+  0.4+    131025 B18  0.0   0.1-    131102 H21  0.2+  0.1+
    131018 H45  0.0   0.2-    131025 B18  0.0   0.2-    131102 H45  0.2+  0.2-
    131018 H45  0.1-  0.1-    131025 B18  0.1-  0.2-    131102 H45  0.3+  0.1-
    131018 H45  0.3-  0.0     131025 H45  0.3-  0.2-    131102 H45  0.3+  0.2-
    131018 926  0.2-  0.0     131025 H45  0.3-  0.1-    131102 H45  0.1+  0.3-
    131018 H45  0.2-  0.4-    131025 H45  0.1-  0.0     131102 673  0.6-  1.0-
    131018 H06  0.7+  0.0     131025 H45  0.1+  0.2-    131102 673  0.7+  0.1+
    131018 926  0.1-  0.1+    131025 H45  0.3-  0.0     131102 673  0.3+  0.2-
    131018 H45  0.5+  0.4-    131025 H45  0.4-  0.0     131102 291  0.2-  0.2+
    131018 H45  0.2+  0.1+    131025 H45  0.1-  0.2+    131102 291  0.1-  0.2+
    131018 H45  0.3-  0.1-    131025 H45  0.3-  0.1+    131102 291  0.1-  0.3+
    131018 H45  0.0   0.3+    131025 H45  0.4-  0.3+    131103 H45  0.1-  0.3-
    131018 H45  0.0   0.2+    131025 H45  0.5-  0.1-    131103 H45  0.0   0.1-
    131018 H45  0.1-  0.1+    131025 H45  0.4-  0.1+    131103 H45  0.2-  0.2-
    131018 V37  0.0   0.1-    131025 H45  0.0   0.2-    131103 H45  0.2-  0.1+
    131018 V37  0.0   0.1-    131025 H36  0.1-  0.1-    131103 H45  0.0   0.0
    131018 V37  0.0   0.2-    131025 H36  0.0   0.1-    131103 H45  0.1+  0.3-
    131018 V37  0.0   0.2-    131025 H36  0.1+  0.2-    131103 H45  0.2-  0.2-
    131018 V37  0.1+  0.2-    131025 291  0.1-  0.4+    131103 H45  0.3-  0.3-
    131018 V37  0.1+  0.2-    131025 291  0.1-  0.2+    131103 H45  0.2-  0.0
    131018 V37  0.1+  0.1-    131025 H21  0.1-  0.0     131103 H45  0.2-  0.4-
    131018 V37  0.1+  0.2-    131025 H21  0.0   0.0     131103 H45  0.0   0.0
    131018 V37  0.2+  0.2-    131025 718  0.0   0.3+    131103 H45  0.2-  0.0
    131018 V37  0.0   0.2-    131025 H21  0.0   0.1+    131103 V37  0.0   0.3-
    131018 V37  0.0   0.1-    131025 H21  0.1-  0.0     131103 V37  0.2-  0.2-
    131018 V37  0.0   0.2-    131025 718  0.1-  0.0     131103 V37  0.0   0.3-
    131018 V37  0.1+  0.0     131025 718  0.5+  0.5+    131103 V37  0.0   0.3-
    131018 V37  0.0   0.2-    131025 H21  0.1+  0.0     131103 V37  0.0   0.3-
    131018 V37  0.2+  0.1-    131025 H21  0.1+  0.0     131103 V37  0.0   0.2-
    131018 V37  0.3+  0.1-    131025 H21  0.1+  0.0     131103 V37  0.2+  0.3-
    131018 V37  0.1+  0.1-    131025 H21  0.1+  0.1+    131103 V37  0.0   0.3-
    131018 V37  0.0   0.1-    131025 H21  0.1+  0.1+    131103 V37  0.0   0.2-
    131018 V37  0.2+  0.1-    131025 B18  0.1-  0.1+    131103 V37  0.0   0.2-
    131019 G40  0.0   0.2+    131025 B18  0.0   0.0     131103 V37  0.0   0.2-
    131019 G40  0.3-  0.2-    131025 B18  0.0   0.1+    131103 D29  0.1+  0.2+
    131019 G40  0.2-  0.0     131025 B18  0.1+  0.2+    131103 D29  0.2-  0.2-
    131019 G40  0.1+  0.3+    131025 B18  0.0   0.1+    131103 D29  0.0   0.2+
    131019 G40  0.1-  0.8-    131025 B18  0.0   0.1+    131105 I22  0.8-  0.4-
    131019 G40  0.1-  0.0     131025 L04  0.3-  0.1-    131105 I22  0.1-  0.0
    131019 718  0.8+  1.2+    131025 L04  0.3-  0.2-    131105 I22  0.0   0.3+
    131019 718  0.8+  0.7+    131025 L04  0.0   0.0     131105 I22  0.2+  0.5+
    131019 718  0.3+  0.5+    131025 L04  0.1-  0.0     131107 A24  0.2-  0.2-
    131019 718  0.4+  0.8+    131025 B18  0.1+  0.0     131107 A24  0.3+  0.2-
    131019 H01  0.1-  0.1-    131025 B18  0.1+  0.1-    131107 A24  0.2+  0.2-
    131019 G58  0.2-  0.1-    131025 B18  0.1+  0.1-    131107 A24  0.4+  0.3-
    131019 H15  0.2+  0.1-    131025 B18  0.1+  0.1-    131107 A24  0.1+  0.2+
    131019 G58  0.0   0.1+    131025 B18  0.1+  0.1-    131107 A24  0.4+  0.1+
    131019 H01  0.0   0.0     131026 589  0.3+  0.2-    131107 718  0.7+  0.5-
    131019 G58  0.0   0.2+    131026 589  0.1+  0.2-    131107 718  0.0   0.4+
    131019 G58  0.1+  0.1-    131026 B18  0.0   0.1-    131107 718  0.9+  0.6-
    131019 G58  0.1+  0.1-    131026 B18  0.0   0.1-    131107 718  0.7+  0.0
    131019 H01  0.0   0.0     131026 B18  0.0   0.1-    131107 H45  0.4+  0.2-
    131019 H15  0.1+  0.6+    131026 B18  0.0   0.1-    131107 H45  0.3+  0.4-
    131019 G58  0.0   0.0     131026 B18  0.1+  0.0     131107 H45  0.4+  0.1-
    131019 H15  0.1-  0.7-    131026 589  0.2+  0.3-    131107 H45  0.4+  0.2-
    131019 H01  0.1-  0.1-    131026 589  0.4+  0.1-    131107 H45  0.4+  0.1-
    131019 H01  0.1-  0.0     131026 K90  0.4-  0.1-    131107 H45  0.5+  0.0
    131019 H15  0.1+  0.4-    131026 K90  0.3-  0.1-    131107 H45  0.3+  0.2-
    131019 H06  0.0   0.3+    131026 K90  0.2+  0.1-    131107 H45  0.3+  0.3-
    131019 H06  0.0   0.0     131026 K90  0.1-  0.0     131107 H21  0.1+  0.2-
    131019 H06  0.1+  0.4-    131026 204  0.1+  0.0     131107 H21  0.1+  0.0
    131019 H06  0.0   0.1-    131026 204  0.0   0.0     131107 H21  0.1+  0.1-
    131019 H06  0.4+  0.0     131026 204  0.1+  0.1-    131107 H21  0.1+  0.0
    131019 H06  0.1+  0.0     131026 204  0.1+  0.0     131107 H21  0.1+  0.1+
    131019 H15  0.1-  0.5-    131026 204  0.2+  0.2-    131107 H21  0.2+  0.1-
    131019 H36  0.3+  0.3-    131026 V37  0.0   0.1-    131107 168  0.3+  0.5+
    131019 H15  0.0   0.2-    131026 V37  0.0   0.0     131107 168  0.3-  0.2+
    131019 H36  0.2+  0.4-    131026 H21  0.1-  0.1+    131107 168  0.4-  0.5-
    131019 H36  0.2+  0.0     131026 V37  0.0   0.0     131108 L04  0.1+  0.2-
    131019 H15  0.6+  0.1-    131026 V37  0.0   0.2-    131108 L04  0.2+  0.1-
    131019 H15  0.1-  0.1-    131026 V37  0.1+  0.0     131108 L04  0.5+  0.0
    131019 K90  0.2+  0.5+    131026 V37  0.2-  0.1-    131108 H45  0.5+  0.2-
    131019 K90  0.2+  0.7-    131026 H21  0.1+  0.1+    131108 H45  0.4+  0.2-
    131019 K90  0.0   0.3-    131026 V37  0.1-  0.0     131108 H45  0.3+  0.2-
    131019 K90  0.8-  0.1+    131026 V37  0.1-  0.2-    131108 H45  0.3+  0.2-
    131019 K90  0.5+  0.6-    131026 V37  0.0   0.2-    131108 H45  0.0   0.3-
    131019 K90  0.7-  0.3+    131026 H21  0.1-  0.0     131108 H45  0.2+  0.4-
    131019 K90  0.2-  0.3+    131026 V37  0.0   0.0     131108 H45  0.2+  0.3-
    131019 C73  0.2+  0.0     131026 V37  0.0   0.1-    131108 H45  0.1+  0.3-
    131019 C73  0.4+  0.1+    131026 V37  0.1+  0.0     131108 H36  0.1-  0.2-
    131019 C73  0.3+  0.5-    131026 V37  0.1+  0.1-    131108 H36  0.0   0.3-
    131019 C73  0.5-  0.2-    131026 H21  0.1-  0.1+    131108 H36  0.1+  0.3-
    131019 C73  1.0-  0.1+    131026 V37  0.1-  0.1-    131108 H36  0.1+  0.3-
    131019 C73  0.6-  0.6+    131026 V37  0.1-  0.1-    131108 H36  0.1-  0.3-
    131019 C73  0.2+  0.3-    131026 H21  0.1+  0.1+    131108 168  1.0-  0.0
    131019 C73  0.0   0.3+    131026 V37  0.1-  0.1-    131108 168  0.1+  0.3+
    131019 C47  0.5+  0.7-    131026 H21  0.1+  0.1+    131108 168  0.1-  1.1+
    131019 C47  0.1+  0.0     131026 V37  0.0   0.2-    131108 168  0.2-  0.5-
    131019 C47  0.1-  0.2+    131026 V37  0.0   0.0     131109 071  0.2-  0.3+
    131020 583  0.5+  0.3+    131026 V37  0.1+  0.0     131109 071  0.3-  0.2+
    131020 583  0.4+  0.1+    131026 H21  0.0   0.1+    131109 071  0.2-  0.1-
    131020 583  0.5+  0.4+    131026 V37  0.1+  0.0     131109 071  0.1+  0.5-
    131020 583  0.2+  0.4+    131026 V37  0.0   0.2-    131109 071  0.2+  0.3+
    131020 583  0.4+  0.2+    131026 H21  0.0   0.2+    131109 071  0.3-  0.1+
    131020 583  0.0   0.5+    131026 V37  0.2+  0.0     131109 071  0.1-  0.4+
    131020 583  0.5+  0.1+    131026 H21  0.0   0.1+    131109 071  0.2-  0.4+
    131020 095  0.5-  0.0     131026 H21  0.2+  0.1-    131109 071  0.2-  0.3+
    131020 583  0.3+  0.4+    131026 291  0.2-  0.4+    131109 071  0.2-  0.1+
    131020 583  0.5+  0.3+    131026 291  0.2-  0.3+    131109 071  0.1-  0.0
    131020 095  0.4-  0.1+    131026 926  0.1-  0.2+    131109 071  0.0   0.3+
    131020 583  0.3+  0.3+    131026 291  0.1-  0.7+    131109 071  0.2-  0.1+
    131020 095  0.2-  0.0     131026 926  0.2-  0.1+    131109 071  0.3-  0.2+
    131020 095  0.0   0.1+    131026 926  0.2-  0.2+    131110 B18  0.0   0.0
    131020 583  0.3+  0.3+    131026 L04  0.1-  0.2+    131110 B18  0.1-  0.0
    131020 583  0.3+  0.1-    131026 L04  0.1+  0.0     131110 B18  0.1+  0.1-
    131020 583  0.5+  0.4+    131026 L04  0.2+  0.1+    131110 B18  0.0   0.0
    131020 583  0.4+  0.1+    131026 157  0.1-  0.0     131110 B18  0.0   0.0
    131020 583  0.4+  0.3+    131026 157  0.1-  0.0     131110 089  0.0   0.2+
    131020 583  0.5+  0.4+    131026 157  0.1+  0.0     131110 089  0.0   0.2+
    131020 583  0.4+  0.6+    131026 157  0.1-  0.1-    131110 089  0.1+  0.0
    131020 583  0.4+  1.0+    131027 589  0.2+  0.1+    131110 089  0.0   0.1-
    131020 583  0.8+  0.0     131027 589  0.0   0.2+    131110 089  0.1-  0.1+
    131020 583  0.3-  0.2-    131027 589  0.1+  0.2+    131110 089  0.1+  0.2+
    131020 G48  0.8-  1.1+    131027 589  0.4+  0.4+    131110 089  0.1+  0.0
    131020 G48  0.1+  0.1-    131027 589  0.1+  0.2+    131110 089  0.0   0.1-
    131020 G48  0.5-  0.1+    131027 589  0.6+  0.4-    131110 071  0.2-  0.0
    131020 G48  0.0   0.1+    131027 589  0.7+  0.8-    131110 071  1.0+  0.5+
    131020 G48  0.2-  0.0     131027 H15  0.1+  0.1-    131110 071  0.0   0.2+
    131020 G48  0.1+  0.0     131027 711  0.1-  0.2+    131110 071  0.2+  0.4+
    131020 G48  0.6+  0.2+    131027 711  0.2-  0.2+    131110 071  0.2-  0.1+
    131020 470  0.2+  0.0     131027 711  0.0   0.2+    131110 071  0.4-  0.2-
    131020 470  0.2+  0.1-    131027 H15  0.2+  0.1-    131110 071  0.0   0.0
    131020 718  0.0   0.8+    131027 H15  0.1+  0.1-    131110 071  0.2-  0.0
    131020 718  0.6-  0.3+    131027 H15  0.1+  0.0     131110 071  0.0   0.4+
    131020 673  0.0   0.0     131027 H15  0.1+  0.0     131110 071  0.1+  0.5+
    131020 673  0.1+  0.3-    131027 B18  0.2-  0.1+    131110 071  0.0   0.3+
    131020 673  0.2-  0.0     131027 B18  0.1+  0.0     131110 H21  0.1+  0.1-
    131020 718  0.2+  0.5+    131027 B18  0.1+  0.0     131110 H21  0.1+  0.1-
    131020 926  0.1-  0.1+    131027 B18  0.0   0.0     131110 H21  0.1+  0.1-
    131020 926  0.1-  0.2+    131027 B18  0.1+  0.1-    131110 H21  0.2-  0.0
    131020 673  0.1+  0.0     131027 L04  0.1-  0.0     131110 H21  0.1-  0.2+
    131020 673  0.0   0.1-    131027 L04  0.2-  0.1+    131110 H21  0.1-  0.1+
    131020 673  0.0   0.1-    131027 L04  0.2-  0.0     131111 H21  0.1+  0.2-
    131020 926  0.1-  0.1+    131027 L04  0.2-  0.2-    131111 H21  0.1+  0.2-
    131020 H06  0.0   0.5-    131027 L04  0.0   0.3-    131111 H21  0.1+  0.1-
    131020 H06  0.4+  0.0     131028 071  0.3-  0.0     131111 H21  0.0   0.1-
    131020 H06  0.1-  0.5-    131028 071  0.2-  0.2+    131111 850  0.1+  0.1+
    131020 H06  0.1+  0.3-    131028 071  0.3-  0.2+    131111 850  0.4+  0.1-
    131020 H06  0.0   0.1-    131028 071  0.1-  0.4+    131111 H45  0.3+  0.1-
    131020 H21  0.0   0.1-    131028 071  0.3-  0.1+    131111 H45  0.6+  0.1-
    131020 H21  0.1-  0.2-    131028 071  0.1-  0.2+    131111 H45  0.5+  0.3-
    131020 H21  0.1+  0.3-    131028 071  0.4-  0.1+    131111 H45  0.5+  0.0
    131020 V37  0.0   0.2-    131028 071  0.3-  0.4+    131111 H45  0.2+  0.1+
    131020 V37  0.1+  0.2-    131028 071  0.2-  0.2+    131111 H45  0.5+  0.1-
    131020 V37  0.1-  0.1-    131028 071  0.4-  0.3+    131111 H45  0.2+  0.1-
    131020 V37  0.1-  0.3-    131028 071  0.3-  0.2+    131111 H45  0.3+  0.4-
    131020 V37  0.1-  0.3-    131028 071  0.3-  0.2+    131111 H45  0.5+  0.0
    131020 V37  0.0   0.2-    131028 071  0.6-  0.2+    131111 H45  0.1+  0.0
    131020 V37  0.3+  0.1-    131028 071  0.3-  0.2+    131112 D29  0.2+  0.0
    131020 V37  0.0   0.1-    131028 071  0.3-  0.0     131112 D29  0.4+  0.4-
    131020 V37  0.0   0.2-    131028 291  0.2-  0.2+    131112 D29  0.0   0.2+
    131020 V37  0.0   0.3-    131028 291  0.2-  0.3+    131112 A13  0.1-  0.1-
    131020 V37  0.0   0.3-    131028 291  0.3-  0.3+    131112 A13  0.0   0.1+
    131020 V37  0.1-  0.2-    131028 H15  0.2-  0.1-    131112 A13  0.1-  0.3-
    131020 V37  0.0   0.1-    131028 H15  0.1-  0.2-    131113 981  1.1-  0.2+
    131020 F51  0.1+  0.2-    131028 H21  0.2+  0.0     131113 981  0.7-  0.0
    131020 F51  0.1-  0.0     131028 H21  0.2+  0.1-    131113 A24  0.2+  0.0
    131021 K90  0.1-  0.1+    131028 H21  0.2+  0.1-    131113 A24  0.3+  0.0
    131021 K90  0.1+  0.1-    131028 H21  0.1+  0.1-    131113 981  0.6-  0.2-
    131021 K90  0.1+  0.2+    131028 H15  0.2+  0.1-    131113 981  0.7-  0.0
    131021 K90  0.0   0.2-    131028 H15  0.1+  0.1-    131113 A24  0.2+  0.1-
    131021 718  0.5+  0.1+    131028 926  0.2-  0.2+    131113 A24  0.3+  0.1-
    131021 718  0.6+  0.0     131028 926  0.2-  0.2+    131113 A24  0.9+  0.1-
    131021 718  0.8+  0.0     131028 H15  0.4+  0.2-    131113 A24  0.3+  0.1+
    131021 718  0.2+  0.8+    131028 926  0.2-  0.2+    131113 H45  0.1-  0.0
    131021 H45  0.2-  0.5-    131028 H15  0.1+  0.1+    131113 H45  0.1+  0.0
    131021 H45  0.1+  0.2-    131028 D29  0.0   0.1-    131113 H45  0.2+  0.2+
    131021 H45  0.3-  0.4-    131028 D29  0.2-  0.1-    131113 H45  0.3+  0.1-
    131021 V37  0.0   0.2-    131028 D29  0.1-  0.3-    131113 H45  0.4+  0.1-
    131021 V37  0.1+  0.0     131029 071  0.3-  0.3+    131113 H45  0.2+  0.0
    131021 V37  0.0   0.3-    131029 071  0.4-  0.1+    131113 H45  0.2+  0.1+
    131021 V37  0.1-  0.2-    131029 071  0.1-  0.3+    131113 H45  0.3+  0.2-
    131021 V37  0.1+  0.0     131029 071  0.1-  0.2+    131113 H45  0.3+  0.1+
    131021 V37  0.0   0.1-    131029 071  0.1-  0.1+    131113 H45  0.4+  0.2-
    131021 V37  0.1+  0.1-    131029 071  0.1-  0.2+    131113 850  0.2+  0.3-
    131021 V37  0.0   0.3-    131029 071  0.2-  0.2+    131113 850  0.1+  0.2-
    131021 119  0.0   0.1+    131029 071  0.4-  0.1+    131114 H21  0.1-  0.6-
    131021 119  0.0   0.1+    131029 071  0.2-  0.1+    131114 H21  0.0   0.2-
    131021 119  0.1+  0.1+    131029 071  0.2-  0.3+    131114 H21  0.2+  0.3-
    131021 119  0.1+  0.1+    131029 071  0.3-  0.3+    131116 K90  0.2+  0.1+
    131021 119  0.1+  0.1+    131029 071  0.2-  0.2+    131116 K90  0.7+  0.0
    131021 119  0.0   0.1-    131029 071  0.2-  0.3+    131116 K90  0.0   0.7+
    131021 119  0.2+  0.1+    131029 071  0.2-  0.2+    131116 K90  1.3+  0.1+
    131021 119  0.1+  0.0     131029 071  0.2-  0.2+    131116 K90  0.3-  0.1+
    131021 119  0.1+  0.1+    131029 071  0.3-  0.0     131119 H21  0.1+  0.2+
    131021 119  0.1-  0.3-    131029 071  0.1-  0.3+    131119 H21  0.0   0.0
    131022 119  0.1+  0.1+    131029 071 (1.6+  0.9+)   131119 H21  0.1+  0.0
    131022 119  0.0   0.0     131029 071  0.1-  0.5+    131119 H21  0.1+  0.1-
    131022 119  0.2-  0.2-    131029 071  0.4-  0.2+    131119 H21  0.1+  0.3-
    131022 119  0.1+  0.0     131029 L04  0.1+  0.0     131124 F51  0.0   0.0
    131022 119  0.1-  0.1-    131029 L04  0.1-  0.3+    131124 F51  0.0   0.0
    131022 718  1.2+  0.3-    131029 L04  0.2+  0.0     131126 568  0.0   0.0
    131022 718  0.3+  0.3-    131029 239  0.1-  0.0     131126 568  0.0   0.0
    131022 718  0.9+  0.6-    131029 239  0.3-  0.2+    131126 568  0.0   0.0
    131022 H15  0.3+  0.5-    131029 239  0.0   0.0     131126 568  0.0   0.0
    131022 H15  0.3+  0.6-    131029 239  0.0   0.0     131126 568  0.1+  0.0
    131022 H15  0.1-  0.2-    131029 239  0.2-  0.1-    131126 B04  0.3+  0.6+
    131022 H21  0.1+  0.3-    131029 239  0.0   0.1-    131126 B04  0.5+  0.2+
    131022 H21  0.0   0.2-    131029 239  0.3-  0.1-    131126 B04  0.5+  0.6+
    131022 H21  0.1+  0.2-    131029 239  0.1-  0.0     131126 B04  0.3-  1.3-
    131022 H21  0.1+  0.3-    131029 239  0.1+  0.1-    131127 H45  0.2+  0.5-
    131022 H15  0.3-  0.1+    131029 239  0.2-  0.2-    131127 H45  0.1+  0.3-
    131022 H21  0.1+  0.2-    131029 071  0.1-  0.2+    131127 H45  0.1-  0.6+
    131022 926  0.1-  0.2+    131029 071  0.5-  0.1-    131128 H21  0.1+  0.0
    131022 926  0.1-  0.2+    131029 071  0.3-  0.1-    131128 H21  0.1+  0.1+
    131022 H15  0.1+  0.5-    131029 071  0.0   0.1+    131128 H21  0.1+  0.1+
    131022 926  0.2-  0.1+    131029 071  0.3-  0.3+    131128 H45  0.5+  0.2-
    131022 H15  0.1+  0.5-    131029 071  0.1-  0.2+    131128 H45  0.1+  0.2-
    131022 H15  0.2+  0.0     131029 071  0.1-  0.2+    131128 H45  0.3+  0.1-
    131022 095  0.1-  0.3+    131029 071  0.2-  0.4+    131128 H45  0.4+  0.2-
    131022 095  0.3-  0.1+    131029 071  0.3-  0.1+    131128 H45  0.1+  0.2-
    131022 589  0.6-  0.1+    131029 071  0.3-  0.2+    131128 H45  0.1+  0.0
    131022 589  0.4-  0.6-    131029 071  0.3-  0.2+    131128 H45  0.1+  0.2-
    131022 589  0.2+  0.1+    131029 071  0.2-  0.2+    131128 H45  0.0   0.2-
    131022 589  0.0   0.4+    131029 071  0.2-  0.1+    131129 H45  0.3+  0.4+
    131022 589  0.1-  0.3-    131029 071  0.2-  0.2+    131129 H45  0.1+  0.1+
    131022 095  0.1-  0.0     131030 I22  0.1-  0.3+    131129 H45  0.1-  0.2-
    131023 095  0.1+  0.2+    131030 I22  0.2-  0.1-    131129 H45  0.4+  0.1-
    131023 G40  0.4+  0.3-    131030 I22  0.0   0.1+    131129 H45  0.0   0.3-
    131023 G40  0.4-  0.1+    131030 291  0.2-  0.3+    131129 H45  0.3+  0.1-
    131023 G40  0.1-  0.2-    131030 291  0.3-  0.5+    131129 H45  0.1+  0.1-
    131023 G40  0.1-  0.1-    131030 291  0.3-  0.3+    131129 H45  0.1+  0.2-
    131023 G40  0.2+  0.1-    131030 568  0.1-  0.1-    131201 130  0.1-  0.2-
    131023 K90  0.2-  0.3+    131030 568  0.1-  0.1-    131201 130  0.3+  0.4-
    131023 K90  0.2+  0.3-    131030 568  0.1-  0.1-    131201 130  0.1+  0.3-
    131023 K90  0.2-  0.2-    131030 355  0.0   0.1-    131201 130  0.2-  0.6-
    131023 K90  0.2-  0.1-    131030 355  0.1-  0.1-    131202 B04  0.0   0.2+
    131023 718  0.2+  0.4+    131030 355  0.1-  0.4-    131202 B04  0.7+  0.4+
    131023 718  0.7+  0.5+    131030 355  0.3-  0.2-    131202 B04  0.4+  0.3-
    131023 718  0.5+  0.3+    131030 B18  0.0   0.1+    131202 B04  0.3+  0.3+
    131023 718  0.5+  0.8+    131030 B18  0.0   0.0     131203 H45  0.1+  1.2+
    131023 734  0.1+  0.0     131030 B18  0.1+  0.1-    131203 H45  0.8+  0.3-
    131023 734  0.0   0.1-    131030 B18  0.0   0.0     131203 H45  0.1+  0.0
    131023 734  0.1-  0.0     131030 B18  0.1-  0.1+    131203 H45  0.6+  0.1+
    131023 926  0.2+  0.1+    131030 B18  0.1+  0.1-    131203 H45  0.6+  0.2-
    131023 926  0.2+  0.2+    131030 C01  0.1+  0.1+    131203 H45  0.6+  0.4-
    131023 926  0.0   0.4+    131030 C01  0.0   0.1-    131203 H45  0.3+  0.2-
    131023 291  0.0   0.3+    131030 C01  0.1+  0.1+    131203 H45  0.1+  0.4-
    131023 291  0.0   0.3+    131030 C01  0.1+  0.1+    131206 695  0.0   0.0
    131023 291  0.2-  0.1+    131030 C01  0.1+  0.0     131206 695  0.1-  0.0
    131023 C48  0.4+  0.9+    131030 C01  0.1+  0.1-    131206 695  0.2-  0.1-
    131023 C48  0.4+  0.9+    131030 C01  0.0   0.0     131206 695  0.0   0.0
    131023 C48  0.0   0.2-    131030 C01  1.4+  0.8+    131209 071  0.3-  0.4+
    131023 C48  0.2+  0.1-    131030 C01  0.2+  0.2+    131209 071  1.1-  0.2+
    131023 C48  0.1+  0.0     131030 595  0.2-  0.2-    131209 071  0.9+  0.4-
    131023 C48  0.2+  0.2+    131030 595  0.0   0.5-    131209 071  0.8-  0.2-
    131023 C48  0.3+  0.2+    131030 595  0.0   0.5-    131209 071  0.2+  0.1-
    131023 C48  0.4+  0.4+    131030 C01  0.0   0.1-    131209 071  0.3+  0.3-
    131023 C48  0.4+  0.5+    131030 071  0.4-  0.2+    131209 071  0.0   0.2+
    131023 C48  0.4+  0.5+    131030 C01  0.2+  0.0     131209 071  0.2+  0.4+
    131023 C48  0.4+  0.5+    131030 C01  0.2+  0.2+    131209 071  0.6+  0.3-
    131023 C48  0.4+  0.9+    131030 C01  0.1+  0.1-    131209 071  1.2+  0.5+
    131023 C48  0.4+  0.7+    131030 071  0.4-  0.6+    131209 071  1.1-  0.5-
    131023 121  0.1-  0.2-    131030 C01  0.2+  0.0     131209 071  0.2-  1.2-
    131023 121  0.1-  0.0     131030 071  0.7-  0.3+    131209 071  0.1-  0.4+
    131023 168  1.1+  1.0+    131030 071  0.2+  0.2+    131209 071  0.5+  0.0
    131023 121  0.2+  0.1-    131030 071  0.2-  0.2+    131209 071  0.2+  0.2+
    131023 168  0.8+  1.2-    131030 071  0.7+  0.6+    131209 071  0.4-  0.5+
    131023 121  0.1+  0.1-    131030 071  0.4-  0.1+    131209 071  0.1-  0.3-
    131023 168  1.1+  0.4-    131030 071  0.3-  0.1+    131209 071  0.4+  0.0
    131023 121  0.0   0.2+    131030 071  0.4-  0.2+    140110 291  0.5-  0.0
    131023 168  1.4+  0.5-    131030 071  0.3-  0.2+    140110 291  0.1-  0.1-
    131023 121  0.0   0.0     131030 071  0.3-  0.3+    140110 291  0.7-  0.3+
    131023 121  0.0   0.2-    131030 071  0.4-  0.3+    140121 291  0.1-  0.2+
    131023 121  0.1+  0.1-    131030 071  0.2-  0.1+    140121 291  0.2+  0.2+
    131023 121  0.0   0.0     131030 071  0.3-  0.2+    140121 291  0.0   0.3+
    131023 121  0.1-  0.2-    131030 071  0.3-  0.1+    140128 291  0.2-  0.3+
    131023 121  0.5-  0.9-    131030 071  0.3-  0.2+    140128 291  0.7-  0.4-
    131023 121  0.0   0.3+    131030 C47  0.0   0.2+    140128 291  0.2-  0.3+
    131023 121  0.4-  0.0     131030 C47  0.2+  0.2+    170719 T14  0.0   0.0
    131023 121  0.5-  0.3-    131031 C47  0.0   0.1+    170719 T14  0.0   0.1+
    131023 121  0.5-  0.0     131031 510  0.1+  0.0     170719 T14  0.0   0.1+
    131023 121  0.0   0.4-    131031 510  0.0   0.0     170719 T14  0.0   0.1+
    131023 121  0.0   0.1+    131031 510  0.1-  0.1-    170719 T14  0.0   0.1+
    131023 121  0.6+  0.2-    131031 510  0.1-  0.0     170719 T14  0.0   0.1+
    131023 121  0.1+  0.3-    131031 510  0.1-  0.2-    170720 T14  0.1-  0.1+
    131023 121  0.2-  0.4-    131031 B18  0.1+  0.0     170720 T14  0.0   0.0
    131023 121  0.2-  0.4-    131031 B18  0.0   0.1-    170720 T14  0.0   0.0
    
